Orbital Elements at Epoch 2459200.5 (2020-Dec-17.0) TDB
Reference: JPL 31 (heliocentric ecliptic J2000)
Element | Value | Uncertainty (1-sigma) | Units |
e | .03419387907074669 | 3.7044e-08 | |
a | 2.983004746856413 | 1.7074e-08 | au |
q | 2.881004243274941 | 1.0971e-07 | au |
i | 8.407088526168296 | 4.2402e-06 | deg |
node | 237.0123328620695 | 2.68e-05 | deg |
peri | 5.948398163106073 | 8.1293e-05 | deg |
M | 194.2823671701194 | 7.9983e-05 | deg |
tp | 2460066.754619974889 (2023-May-02.25461998) | 0.00042179 | TDB |
period | 1881.825475452543 5.15 | 1.6156e-05 4.423e-08 | d yr |
n | .1913036063630857 | 1.6424e-09 | deg/d |
Q | 3.085005250437885 | 1.7657e-08 | au |
|
| | Orbit Determination Parameters
Additional Information
|